Back to catalog

COSMOS 2251 DEB

AliveLEO
NORAD 40802·DEBRIS·🇷🇺 Russia

Launched Jun 16, 1993 from Plesetsk Cosmodrome

Loading…

Next Passes (next 24 hours)

TLE

FreshSource: Space-Track

Epoch: Sep 14, 2026, 11:17 UTC

1 40802U 93036BWF 26257.47044543  .00001937  00000-0  25432-3 0  9997
2 40802  74.0413 330.9442 0060643 356.0409   4.0278 14.79763016684852

Track COSMOS 2251 DEB in real time with AllMySat

Download on the App Store